Location: Faicchio
(41.2833°N, 14.4833°E)
Time: 06:26:24
(UTC+00:00)

SL-24 R/B - RUBIN 2 - Pass Details

Date: 15 June 2025
Orbit: 590 x 998 km, 64.6° (Epoch: 16 July)

Event Time Altitude Azimuth Distance (km) Brightness Sun altitude
Rises 01:14:44 0° 320° (NW) 3,096 7.4 -18.5°
Reaches altitude 10° 01:17:17 10° 313° (NW) 2,112 6.4 -18.3°
Maximum altitude 01:21:41 39° 245° (WSW) 950 4.1 -17.8°
Enters shadow 01:22:25 36° 221° (SW) 992 4.1 -17.7°
